Weather History for Sallisaw, OK

Change the Weather History Date:

Tuesday, July 31, 2012

  Actual Average Record
Temperature  
Mean Temperature 88 °F -  
Max Temperature 105 °F 94 °F 107 °F (1986)
Min Temperature 71 °F 69 °F 51 °F (1971)
Cooling Degree Days 23    
Growing Degree Days 38 (Base 50)    
Moisture  
Dew Point 61 °F    
Average Humidity 41    
Maximum Humidity 78    
Minimum Humidity 15    
Precipitation  
Precipitation 0.00 in - - ()
Sea Level Pressure  
Sea Level Pressure 29.90 in    
Wind  
Wind Speed 3 mph (South)    
Max Wind Speed 13 mph    
Max Gust Speed 18 mph    
Visibility 10 miles    
Events      
Averages and records for this station are not official NWS values.
T = Trace of Precipitation, MM = Missing Value Source: NWS Daily Summary

Daily Weather History Graph

Daily Weather History Graph

Search for Another Location

Airport:

Trip Planner

Search our weather history database for the weather conditions in past years. The results will help you decide how hot, cold, wet, or windy it might be!

Date:

Astronomy

Jul. 31, 2012 Rise Set
Actual Time 6:27 AM CDT 8:23 PM CDT
Civil Twilight 5:59 AM CDT 8:51 PM CDT
Nautical Twilight 5:25 AM CDT 9:25 PM CDT
Astronomical Twilight 4:48 AM CDT 10:01 PM CDT
Moon 7:13 PM CDT (7/31) 4:50 AM CDT (7/31)
Length of Visible Light 14h 51m
Length of Day
13h 55m
Waxing Gibbous, 97% of the Moon is Illuminated
Jul 31
Waxing Gibbous
Aug 1
Full
Aug 9
Last Quarter
Aug 17
New
Aug 24
First Quarter

Hourly Weather History & Observations

Time (CDT) Temp. Heat Index Dew Point Humidity Pressure Visibility Wind Dir Wind Speed Gust Speed Precip Events Conditions
12:15 AM 82.4 °F 83.4 °F 62.6 °F 51% 29.90 in 10.0 mi Calm Calm - N/A   Clear
12:35 AM 80.6 °F 81.8 °F 62.6 °F 54% 29.90 in 10.0 mi Calm Calm - N/A   Clear
12:55 AM 80.6 °F 81.8 °F 62.6 °F 54% 29.90 in 10.0 mi Calm Calm - N/A   Clear
1:15 AM 80.6 °F 81.8 °F 62.6 °F 54% 29.91 in 10.0 mi Calm Calm - N/A   Clear
1:55 AM 78.8 °F - 64.4 °F 61% 29.90 in 10.0 mi Calm Calm - N/A   Clear
2:35 AM 77.0 °F - 64.4 °F 65% 29.90 in 10.0 mi Calm Calm - N/A   Clear
3:15 AM 77.0 °F - 64.4 °F 65% 29.90 in 10.0 mi Calm Calm - N/A   Clear
3:35 AM 77.0 °F - 64.4 °F 65% 29.90 in 10.0 mi Calm Calm - N/A   Clear
3:55 AM 75.2 °F - 64.4 °F 69% 29.90 in 10.0 mi Calm Calm - N/A   Clear
4:15 AM 73.4 °F - 64.4 °F 73% 29.90 in 10.0 mi Calm Calm - N/A   Clear
4:35 AM 73.4 °F - 64.4 °F 73% 29.90 in 10.0 mi Calm Calm - N/A   Clear
4:55 AM 73.4 °F - 64.4 °F 73% 29.90 in 10.0 mi Calm Calm - N/A   Clear
5:15 AM 73.4 °F - 64.4 °F 73% 29.91 in 10.0 mi Calm Calm - N/A   Clear
5:35 AM 73.4 °F - 64.4 °F 73% 29.92 in 10.0 mi Calm Calm - N/A   Clear
5:55 AM 71.6 °F - 64.4 °F 78% 29.92 in 10.0 mi Calm Calm - N/A   Clear
6:15 AM 71.6 °F - 64.4 °F 78% 29.92 in 10.0 mi Calm Calm - N/A   Clear
6:35 AM 71.6 °F - 64.4 °F 78% 29.93 in 10.0 mi Calm Calm - N/A   Clear
6:55 AM 71.6 °F - 64.4 °F 78% 29.93 in 10.0 mi Calm Calm - N/A   Clear
7:15 AM 73.4 °F - 66.2 °F 78% 29.94 in 10.0 mi ENE 3.5 mph - N/A   Clear
7:35 AM 77.0 °F - 66.2 °F 69% 29.95 in 10.0 mi East 3.5 mph - N/A   Clear
8:15 AM 80.6 °F 82.3 °F 64.4 °F 58% 29.96 in 10.0 mi Calm Calm - N/A   Clear
8:35 AM 86.0 °F 87.3 °F 64.4 °F 48% 29.96 in 10.0 mi Calm Calm - N/A   Clear
8:55 AM 86.0 °F 87.3 °F 64.4 °F 48% 29.97 in 10.0 mi WSW 3.5 mph - N/A   Clear
9:15 AM 87.8 °F 88.5 °F 62.6 °F 43% 29.97 in 10.0 mi WSW 4.6 mph - N/A   Clear
9:35 AM 89.6 °F 90.1 °F 62.6 °F 40% 29.97 in 10.0 mi SW 5.8 mph - N/A   Clear
9:55 AM 91.4 °F 92.1 °F 62.6 °F 38% 29.97 in 10.0 mi SW 6.9 mph - N/A   Clear
10:15 AM 91.4 °F 92.1 °F 62.6 °F 38% 29.97 in 10.0 mi West 8.1 mph - N/A   Clear
10:35 AM 93.2 °F 94.1 °F 62.6 °F 36% 29.97 in 10.0 mi West 6.9 mph - N/A   Clear
10:55 AM 95.0 °F 96.0 °F 62.6 °F 34% 29.96 in 10.0 mi SW 6.9 mph - N/A   Clear
11:15 AM 95.0 °F 95.2 °F 60.8 °F 32% 29.96 in 10.0 mi SW 5.8 mph - N/A   Clear
11:35 AM 96.8 °F 97.1 °F 60.8 °F 30% 29.96 in 10.0 mi SW 5.8 mph - N/A   Clear
11:55 AM 96.8 °F 97.1 °F 60.8 °F 30% 29.95 in 10.0 mi WNW 8.1 mph - N/A   Clear
12:15 PM 98.6 °F 99.4 °F 60.8 °F 29% 29.95 in 10.0 mi WNW 6.9 mph - N/A   Clear
12:55 PM 100.4 °F 100.2 °F 59.0 °F 25% 29.93 in 10.0 mi West 9.2 mph - N/A   Clear
1:15 PM 100.4 °F 100.2 °F 59.0 °F 25% 29.93 in 10.0 mi SSW 6.9 mph - N/A   Clear
1:35 PM 104.0 °F 103.4 °F 57.2 °F 21% 29.92 in 10.0 mi SE 5.8 mph - N/A   Clear
1:55 PM 102.2 °F 101.4 °F 57.2 °F 22% 29.91 in 10.0 mi Calm Calm - N/A   Clear
2:15 PM 104.0 °F 103.4 °F 57.2 °F 21% 29.90 in 10.0 mi South 10.4 mph 18.4 mph N/A   Clear
2:35 PM 104.0 °F 104.6 °F 59.0 °F 23% 29.90 in 10.0 mi South 8.1 mph - N/A   Clear
2:55 PM 105.8 °F 106.8 °F 59.0 °F 22% 29.89 in 10.0 mi South 8.1 mph - N/A   Clear
3:15 PM 105.8 °F 105.5 °F 57.2 °F 20% 29.89 in 10.0 mi ESE 9.2 mph - N/A   Clear
3:35 PM 105.8 °F 105.5 °F 57.2 °F 20% 29.88 in 10.0 mi South 5.8 mph - N/A   Clear
3:55 PM 105.8 °F 105.5 °F 57.2 °F 20% 29.88 in 10.0 mi South 10.4 mph - N/A   Clear
4:15 PM 105.8 °F 105.5 °F 57.2 °F 20% 29.87 in 10.0 mi SSE 5.8 mph - N/A   Clear
4:35 PM 105.8 °F 104.9 °F 55.4 °F 19% 29.87 in 10.0 mi SSE 9.2 mph - N/A   Clear
4:55 PM 105.8 °F 105.5 °F 57.2 °F 20% 29.87 in 10.0 mi SE 8.1 mph - N/A   Clear
5:15 PM 105.8 °F 106.8 °F 59.0 °F 22% 29.86 in 10.0 mi ESE 9.2 mph - N/A   Clear
5:35 PM 105.8 °F 104.9 °F 55.4 °F 19% 29.85 in 10.0 mi SSE 10.4 mph - N/A   Clear
5:55 PM 105.8 °F 104.3 °F 53.6 °F 18% 29.85 in 10.0 mi SE 11.5 mph 16.1 mph N/A   Clear
6:35 PM 104.0 °F - 50.0 °F 16% 29.84 in 10.0 mi SSE 12.7 mph 17.3 mph N/A   Clear
6:55 PM 104.0 °F - 48.2 °F 15% 29.84 in 10.0 mi SE 10.4 mph - N/A   Clear
7:15 PM 102.2 °F 100.4 °F 53.6 °F 20% 29.84 in 10.0 mi SSE 6.9 mph - N/A   Clear
7:35 PM 100.4 °F 98.8 °F 55.4 °F 22% 29.85 in 10.0 mi SE 5.8 mph - N/A   Clear
7:55 PM 98.6 °F 98.5 °F 59.0 °F 27% 29.85 in 10.0 mi SE 6.9 mph - N/A   Clear
8:15 PM 96.8 °F 96.2 °F 59.0 °F 28% 29.85 in 10.0 mi SE 5.8 mph - N/A   Clear
8:35 PM 95.0 °F 94.4 °F 59.0 °F 30% 29.85 in 10.0 mi SSE 4.6 mph - N/A   Clear
8:55 PM 95.0 °F 94.4 °F 59.0 °F 30% 29.86 in 10.0 mi South 6.9 mph - N/A   Clear
9:15 PM 95.0 °F 94.4 °F 59.0 °F 30% 29.86 in 10.0 mi South 5.8 mph - N/A   Clear
9:35 PM 95.0 °F 94.4 °F 59.0 °F 30% 29.87 in 10.0 mi SSW 6.9 mph - N/A   Clear
9:55 PM 93.2 °F 92.6 °F 59.0 °F 32% 29.87 in 10.0 mi SSW 5.8 mph - N/A   Clear
10:15 PM 91.4 °F 90.7 °F 59.0 °F 34% 29.88 in 10.0 mi SSW 5.8 mph - N/A   Clear
10:35 PM 91.4 °F 91.4 °F 60.8 °F 36% 29.88 in 10.0 mi South 3.5 mph - N/A   Clear
10:55 PM 89.6 °F 89.5 °F 60.8 °F 38% 29.88 in 10.0 mi SSW 5.8 mph - N/A   Clear
11:55 PM 87.8 °F 88.5 °F 62.6 °F 43% 29.89 in 10.0 mi SW 5.8 mph - N/A   Clear